QPF
0.00 0.00 0.00 0.00 0.00 0.00 0.01 0.01 0.01 0.01 0.02 0.03 0.03 0.04 0.06 0.10 0.15 0.14 0.08 0.04 0.01 0.00 0.00 0.00 0.00 0.01 0.01 0.00 0.00 0.00 0.00 0.01 0.01 0.01 0.01 0.02 0.01 0.01 0.01 0.01 0.01 0.00 0.00 0.00
0.00 0.00 0.00 0.00 0.00 0.00 0.00 0.01 0.01 0.02 0.06 0.06 0.06 0.08 0.11 0.16 0.17 0.13 0.07 0.03 0.01 0.00 0.00 0.00 0.00 0.00 0.00 0.00 0.00 0.01 0.01 0.02 0.03 0.03 0.03 0.03 0.02 0.01 0.01 0.00 0.00 0.00 0.00 0.00
0.00 0.00 0.00 0.00 0.00 0.00 0.00 0.00 0.01 0.03 0.06 0.07 0.08 0.10 0.11 0.13 0.17 0.15 0.09 0.04 0.02 0.01 0.00 0.00 0.00 0.00 0.00 0.01 0.01 0.02 0.04 0.05 0.06 0.05 0.03 0.01 0.01 0.00 0.00 0.00 0.00 0.00 0.00 0.00
0.00 0.00 0.00 0.00 0.01 0.01 0.01 0.02 0.02 0.02 0.02 0.02 0.03 0.03 0.03 0.05 0.05 0.05 0.03 0.02 0.02 0.01 0.01 0.01 0.01 0.02 0.03 0.04 0.06 0.07 0.07 0.05 0.04 0.02 0.01 0.01 0.00 0.00 0.00 0.00 0.00 0.00 0.00 0.00
0.00 0.00 0.00 0.01 0.01 0.01 0.02 0.03 0.02 0.02 0.01 0.01 0.00 0.00 0.00 0.00 0.00 0.00 0.01 0.01 0.01 0.02 0.02 0.04 0.05 0.06 0.07 0.07 0.06 0.05 0.04 0.02 0.01 0.01 0.01 0.00 0.00 0.00 0.00 0.00 0.00 0.00 0.00 0.00
0.00 0.00 0.01 0.01 0.00 0.00 0.01 0.04 0.01 0.01 0.01 0.01 0.00 0.01 0.00 0.00 0.00 0.00 0.00 0.00 0.01 0.02 0.04 0.05 0.05 0.05 0.04 0.04 0.03 0.02 0.01 0.01 0.00 0.00 0.00 0.00 0.00 0.00 0.00 0.00 0.00 0.00 0.00 0.00
0.03 0.02 0.02 0.01 0.00 0.01 0.02 0.02 0.00 0.00 0.00 0.01 0.01 0.00 0.00 0.00 0.00 0.00 0.00 0.00 0.01 0.01 0.02 0.02 0.01 0.01 0.01 0.01 0.01 0.01 0.01 0.01 0.00 0.00 0.00 0.00 0.00 0.00 0.00 0.00 0.00 0.00 0.00 0.00
0.06 0.06 0.06 0.02 0.01 0.01 0.01 0.00 0.00 0.00 0.00 0.01 0.00 0.00 0.00 0.00 0.00 0.00 0.00 0.00 0.00 0.01 0.01 0.00 0.00 0.00 0.00 0.00 0.00 0.00 0.00 0.00 0.00 0.00 0.00 0.00 0.00 0.00 0.00 0.00 0.00 0.00 0.00 0.00
0.06 0.07 0.05 0.01 0.01 0.00 0.00 0.00 0.01 0.01 0.01 0.01 0.00 0.00 0.00 0.00 0.00 0.00 0.00 0.00 0.00 0.00 0.00 0.00 0.00 0.00 0.01 0.00 0.00 0.00 0.00 0.00 0.00 0.00 0.00 0.00 0.00 0.00 0.00 0.00 0.00 0.00 0.00 0.00
0.02 0.03 0.02 0.01 0.00 0.00 0.00 0.00 0.01 0.01 0.01 0.01 0.00 0.00 0.00 0.00 0.00 0.00 0.00 0.00 0.00 0.00 0.00 0.01 0.00 0.01 0.00 0.00 0.00 0.00 0.00 0.00 0.00 0.00 0.00 0.00 0.00 0.00 0.00 0.00 0.00 0.00 0.00 0.00
0.01 0.01 0.01 0.01 0.01 0.00 0.00 0.01 0.01 0.02 0.02 0.01 0.00 0.00 0.00 0.00 0.00 0.00 0.00 0.00 0.01 0.01 0.01 0.01 0.00 0.00 0.00 0.00 0.00 0.00 0.00 0.01 0.00 0.00 0.00 0.00 0.00 0.00 0.00 0.00 0.00 0.00 0.00 0.00
0.01 0.01 0.01 0.01 0.01 0.00 0.01 0.02 0.03 0.03 0.03 0.01 0.01 0.00 0.00 0.00 0.00 0.00 0.01 0.01 0.01 0.01 0.00 0.00 0.00 0.00 0.00 0.00 0.00 0.00 0.00 0.00 0.00 0.00 0.00 0.00 0.00 0.00 0.00 0.00 0.00 0.00 0.00 0.00
0.00 0.00 0.00 0.01 0.01 0.01 0.02 0.03 0.04 0.04 0.03 0.02 0.01 0.01 0.01 0.01 0.01 0.01 0.01 0.01 0.01 0.00 0.00 0.00 0.00 0.00 0.00 0.00 0.00 0.00 0.00 0.00 0.00 0.00 0.00 0.00 0.00 0.00 0.00 0.00 0.00 0.00 0.00 0.00
0.00 0.00 0.01 0.01 0.02 0.02 0.03 0.03 0.03 0.03 0.02 0.02 0.02 0.02 0.02 0.01 0.01 0.01 0.01 0.00 0.00 0.00 0.00 0.00 0.00 0.00 0.00 0.00 0.00 0.00 0.00 0.00 0.00 0.00 0.00 0.00 0.00 0.00 0.00 0.00 0.00 0.00 0.00 0.00
0.00 0.00 0.01 0.01 0.02 0.02 0.02 0.02 0.02 0.02 0.02 0.02 0.02 0.02 0.01 0.01 0.01 0.00 0.00 0.00 0.00 0.00 0.00 0.00 0.00 0.00 0.00 0.00 0.00 0.00 0.00 0.00 0.00 0.00 0.00 0.00 0.00 0.00 0.00 0.00 0.00 0.00 0.00 0.00
0.00 0.00 0.01 0.01 0.01 0.02 0.03 0.03 0.03 0.03 0.04 0.03 0.02 0.01 0.00 0.00 0.00 0.00 0.00 0.00 0.00 0.00 0.00 0.00 0.00 0.00 0.00 0.00 0.00 0.00 0.00 0.00 0.00 0.00 0.00 0.00 0.00 0.00 0.00 0.00 0.00 0.00 0.00 0.00
0.01 0.01 0.01 0.01 0.01 0.01 0.02 0.03 0.02 0.02 0.02 0.01 0.01 0.00 0.00 0.00 0.00 0.00 0.00 0.00 0.00 0.00 0.00 0.00 0.00 0.00 0.00 0.00 0.00 0.00 0.00 0.00 0.00 0.00 0.00 0.00 0.00 0.00 0.00 0.00 0.00 0.00 0.00 0.00
0.01 0.00 0.00 0.00 0.01 0.01 0.01 0.01 0.01 0.01 0.01 0.00 0.00 0.00 0.00 0.00 0.00 0.00 0.00 0.00 0.00 0.00 0.00 0.00 0.00 0.00 0.00 0.00 0.00 0.00 0.00 0.00 0.00 0.00 0.00 0.00 0.00 0.00 0.00 0.00 0.00 0.00 0.00 0.00
0.00 0.00 0.01 0.01 0.01 0.00 0.00 0.00 0.00 0.00 0.00 0.00 0.00 0.00 0.00 0.00 0.00 0.00 0.00 0.00 0.00 0.00 0.00 0.00 0.00 0.00 0.00 0.00 0.00 0.00 0.00 0.00 0.00 0.00 0.00 0.00 0.00 0.00 0.00 0.00 0.00 0.00 0.00 0.00
0.00 0.00 0.00 0.00 0.00 0.00 0.00 0.00 0.00 0.00 0.00 0.00 0.00 0.00 0.00 0.00 0.00 0.00 0.00 0.00 0.00 0.00 0.00 0.00 0.00 0.00 0.00 0.00 0.00 0.00 0.00 0.00 0.00 0.00 0.00 0.00 0.00 0.00 0.00 0.00 0.00 0.00 0.00 0.00
0.00 0.00 0.00 0.00 0.00 0.00 0.00 0.00 0.00 0.00 0.00 0.00 0.00 0.00 0.00 0.00 0.00 0.00 0.00 0.00 0.00 0.00 0.00 0.00 0.00 0.00 0.00 0.00 0.00 0.00 0.00 0.00 0.00 0.00 0.00 0.00 0.00 0.00 0.00 0.00 0.00 0.00 0.00 0.00
0.00 0.00 0.00 0.00 0.00 0.00 0.00 0.00 0.00 0.00 0.00 0.00 0.00 0.00 0.00 0.00 0.00 0.00 0.00 0.00 0.00 0.00 0.00 0.00 0.00 0.00 0.00 0.00 0.00 0.00 0.00 0.00 0.00 0.00 0.00 0.00 0.00 0.00 0.00 0.00 0.00 0.00 0.00 0.00
0.00 0.00 0.00 0.00 0.00 0.00 0.00 0.00 0.00 0.00 0.00 0.00 0.00 0.00 0.00 0.00 0.00 0.00 0.00 0.00 0.00 0.00 0.00 0.00 0.00 0.00 0.00 0.00 0.00 0.00 0.00 0.00 0.00 0.00 0.00 0.00 0.00 0.00 0.00 0.00 0.00 0.00 0.00 0.00
0.00 0.00 0.00 0.00 0.00 0.00 0.00 0.00 0.00 0.00 0.00 0.00 0.00 0.00 0.00 0.00 0.00 0.00 0.00 0.00 0.00 0.00 0.00 0.00 0.00 0.00 0.00 0.00 0.00 0.00 0.00 0.00 0.00 0.00 0.00 0.00 0.00 0.00 0.00 0.00 0.00 0.00 0.00 0.00
0.00 0.00 0.00 0.00 0.00 0.00 0.00 0.00 0.00 0.00 0.00 0.00 0.00 0.00 0.00 0.00 0.00 0.00 0.00 0.00 0.00 0.00 0.00 0.00 0.00 0.00 0.00 0.00 0.00 0.00 0.00 0.00 0.00 0.00 0.00 0.00 0.00 0.00 0.00 0.00 0.00 0.00 0.00 0.00
0.01 0.00 0.00 0.00 0.00 0.00 0.00 0.00 0.00 0.00 0.00 0.00 0.00 0.00 0.00 0.00 0.00 0.00 0.00 0.00 0.00 0.00 0.00 0.00 0.00 0.00 0.00 0.00 0.00 0.00 0.00 0.00 0.00 0.00 0.00 0.00 0.00 0.00 0.00 0.00 0.00 0.00 0.00 0.00
0.02 0.01 0.00 0.00 0.00 0.00 0.00 0.00 0.00 0.00 0.00 0.00 0.00 0.00 0.00 0.00 0.00 0.00 0.00 0.00 0.00 0.00 0.00 0.00 0.00 0.00 0.00 0.00 0.00 0.00 0.00 0.00 0.00 0.00 0.00 0.00 0.00 0.00 0.00 0.00 0.00 0.00 0.00 0.00
MSLP
1010.35 1010.31 1010.36 1010.53 1010.80 1011.15 1011.55 1011.97 1012.37 1012.73 1013.03 1013.27 1013.47 1013.67 1013.87 1014.11 1014.41 1014.78 1015.20 1015.67 1016.16 1016.64 1017.10 1017.52 1017.88 1018.20 1018.47 1018.70 1018.91 1019.11 1019.29 1019.48 1019.67 1019.87 1020.09 1020.32 1020.57 1020.85 1021.13 1021.43 1021.71 1021.97 1022.19 1022.34
1011.34 1011.29 1011.28 1011.31 1011.40 1011.55 1011.76 1012.01 1012.30 1012.61 1012.94 1013.27 1013.61 1013.96 1014.32 1014.70 1015.09 1015.51 1015.94 1016.38 1016.81 1017.24 1017.65 1018.03 1018.38 1018.70 1018.99 1019.25 1019.48 1019.69 1019.88 1020.06 1020.23 1020.42 1020.62 1020.84 1021.08 1021.35 1021.63 1021.90 1022.16 1022.38 1022.54 1022.64
1012.28 1012.23 1012.17 1012.12 1012.08 1012.09 1012.15 1012.28 1012.48 1012.76 1013.11 1013.51 1013.95 1014.42 1014.89 1015.37 1015.83 1016.27 1016.69 1017.10 1017.48 1017.85 1018.20 1018.54 1018.87 1019.19 1019.48 1019.76 1020.00 1020.22 1020.41 1020.59 1020.76 1020.93 1021.12 1021.34 1021.58 1021.83 1022.10 1022.36 1022.58 1022.76 1022.87 1022.91
1013.10 1013.05 1012.97 1012.86 1012.75 1012.67 1012.64 1012.70 1012.86 1013.13 1013.50 1013.96 1014.48 1015.04 1015.60 1016.14 1016.64 1017.09 1017.50 1017.86 1018.18 1018.49 1018.79 1019.09 1019.39 1019.69 1019.98 1020.25 1020.49 1020.71 1020.90 1021.08 1021.24 1021.41 1021.60 1021.81 1022.05 1022.30 1022.55 1022.78 1022.97 1023.11 1023.16 1023.13
1013.75 1013.70 1013.59 1013.45 1013.30 1013.18 1013.12 1013.16 1013.32 1013.61 1014.03 1014.54 1015.14 1015.77 1016.39 1016.97 1017.50 1017.95 1018.33 1018.65 1018.92 1019.17 1019.42 1019.67 1019.93 1020.20 1020.47 1020.73 1020.96 1021.18 1021.37 1021.54 1021.70 1021.86 1022.05 1022.26 1022.49 1022.73 1022.96 1023.17 1023.32 1023.41 1023.40 1023.31
1014.23 1014.14 1014.01 1013.84 1013.68 1013.55 1013.50 1013.55 1013.74 1014.08 1014.55 1015.14 1015.80 1016.49 1017.16 1017.78 1018.33 1018.78 1019.14 1019.42 1019.65 1019.85 1020.04 1020.25 1020.47 1020.70 1020.94 1021.18 1021.41 1021.61 1021.79 1021.96 1022.12 1022.29 1022.47 1022.68 1022.90 1023.13 1023.34 1023.51 1023.63 1023.66 1023.60 1023.44
1014.53 1014.39 1014.22 1014.03 1013.86 1013.74 1013.71 1013.81 1014.05 1014.44 1014.98 1015.63 1016.35 1017.10 1017.83 1018.48 1019.04 1019.50 1019.85 1020.11 1020.30 1020.46 1020.61 1020.77 1020.95 1021.15 1021.37 1021.58 1021.79 1021.99 1022.17 1022.34 1022.50 1022.67 1022.86 1023.06 1023.27 1023.48 1023.67 1023.81 1023.88 1023.87 1023.75 1023.54
1014.70 1014.49 1014.27 1014.06 1013.88 1013.78 1013.78 1013.91 1014.21 1014.66 1015.26 1015.97 1016.75 1017.55 1018.31 1019.00 1019.59 1020.05 1020.40 1020.65 1020.82 1020.95 1021.07 1021.19 1021.34 1021.51 1021.69 1021.89 1022.09 1022.28 1022.47 1022.64 1022.82 1023.00 1023.19 1023.39 1023.60 1023.79 1023.95 1024.06 1024.09 1024.03 1023.88 1023.63
1014.79 1014.51 1014.25 1014.00 1013.82 1013.72 1013.75 1013.92 1014.25 1014.75 1015.39 1016.15 1016.97 1017.81 1018.60 1019.32 1019.93 1020.41 1020.76 1021.01 1021.17 1021.29 1021.38 1021.48 1021.59 1021.74 1021.90 1022.08 1022.28 1022.47 1022.67 1022.86 1023.05 1023.25 1023.45 1023.65 1023.85 1024.03 1024.17 1024.25 1024.25 1024.16 1023.97 1023.69
1014.88 1014.55 1014.25 1013.99 1013.79 1013.70 1013.74 1013.93 1014.28 1014.79 1015.46 1016.23 1017.07 1017.92 1018.73 1019.47 1020.09 1020.58 1020.94 1021.19 1021.35 1021.46 1021.54 1021.61 1021.71 1021.83 1021.98 1022.15 1022.34 1022.54 1022.75 1022.96 1023.18 1023.39 1023.61 1023.83 1024.02 1024.19 1024.32 1024.38 1024.35 1024.24 1024.04 1023.75
1015.03 1014.69 1014.37 1014.10 1013.91 1013.82 1013.85 1014.04 1014.39 1014.90 1015.55 1016.31 1017.13 1017.97 1018.78 1019.50 1020.12 1020.62 1020.99 1021.24 1021.40 1021.50 1021.56 1021.62 1021.70 1021.80 1021.93 1022.10 1022.29 1022.51 1022.73 1022.96 1023.20 1023.44 1023.67 1023.90 1024.10 1024.26 1024.37 1024.42 1024.39 1024.27 1024.07 1023.78
1015.29 1014.97 1014.68 1014.43 1014.25 1014.16 1014.19 1014.36 1014.69 1015.16 1015.76 1016.47 1017.25 1018.04 1018.81 1019.51 1020.11 1020.60 1020.96 1021.21 1021.36 1021.45 1021.51 1021.55 1021.61 1021.70 1021.82 1021.98 1022.17 1022.39 1022.63 1022.88 1023.13 1023.39 1023.63 1023.87 1024.07 1024.23 1024.34 1024.39 1024.35 1024.24 1024.05 1023.77
1015.65 1015.40 1015.17 1014.97 1014.82 1014.75 1014.77 1014.92 1015.20 1015.61 1016.15 1016.78 1017.48 1018.21 1018.91 1019.56 1020.13 1020.59 1020.93 1021.17 1021.32 1021.40 1021.44 1021.48 1021.52 1021.59 1021.69 1021.84 1022.03 1022.24 1022.48 1022.74 1023.01 1023.27 1023.52 1023.76 1023.96 1024.12 1024.23 1024.27 1024.25 1024.15 1023.97 1023.72
1016.08 1015.94 1015.79 1015.66 1015.57 1015.52 1015.55 1015.67 1015.91 1016.25 1016.70 1017.24 1017.85 1018.49 1019.11 1019.70 1020.21 1020.64 1020.96 1021.18 1021.32 1021.39 1021.43 1021.45 1021.47 1021.52 1021.61 1021.74 1021.91 1022.12 1022.35 1022.60 1022.87 1023.13 1023.38 1023.61 1023.80 1023.96 1024.06 1024.11 1024.08 1024.00 1023.84 1023.63
1016.50 1016.48 1016.45 1016.42 1016.39 1016.39 1016.43 1016.54 1016.72 1017.00 1017.36 1017.81 1018.32 1018.87 1019.41 1019.93 1020.39 1020.77 1021.07 1021.28 1021.40 1021.47 1021.50 1021.51 1021.52 1021.55 1021.62 1021.72 1021.87 1022.06 1022.27 1022.51 1022.75 1023.00 1023.23 1023.45 1023.63 1023.77 1023.87 1023.91 1023.90 1023.82 1023.69 1023.50
1016.84 1016.95 1017.04 1017.11 1017.17 1017.22 1017.28 1017.38 1017.54 1017.76 1018.05 1018.42 1018.84 1019.30 1019.77 1020.23 1020.64 1020.99 1021.27 1021.46 1021.59 1021.65 1021.67 1021.67 1021.67 1021.69 1021.73 1021.81 1021.93 1022.09 1022.27 1022.48 1022.70 1022.91 1023.13 1023.32 1023.48 1023.60 1023.69 1023.73 1023.72 1023.65 1023.53 1023.37
1017.02 1017.26 1017.47 1017.64 1017.78 1017.89 1017.99 1018.10 1018.24 1018.43 1018.67 1018.98 1019.34 1019.74 1020.15 1020.56 1020.94 1021.27 1021.54 1021.73 1021.86 1021.93 1021.95 1021.95 1021.94 1021.93 1021.95 1022.00 1022.09 1022.21 1022.36 1022.53 1022.71 1022.90 1023.08 1023.24 1023.38 1023.49 1023.57 1023.60 1023.59 1023.53 1023.43 1023.28
1017.02 1017.37 1017.69 1017.96 1018.17 1018.35 1018.49 1018.63 1018.77 1018.95 1019.17 1019.45 1019.77 1020.14 1020.52 1020.91 1021.27 1021.60 1021.87 1022.07 1022.20 1022.28 1022.30 1022.30 1022.28 1022.26 1022.26 1022.28 1022.33 1022.41 1022.52 1022.65 1022.80 1022.95 1023.10 1023.24 1023.36 1023.46 1023.52 1023.55 1023.54 1023.49 1023.40 1023.26
1016.87 1017.31 1017.71 1018.05 1018.34 1018.57 1018.76 1018.93 1019.10 1019.29 1019.52 1019.80 1020.12 1020.48 1020.86 1021.25 1021.62 1021.95 1022.23 1022.44 1022.59 1022.67 1022.70 1022.70 1022.67 1022.63 1022.60 1022.59 1022.61 1022.66 1022.73 1022.83 1022.95 1023.07 1023.20 1023.32 1023.43 1023.52 1023.59 1023.62 1023.61 1023.57 1023.49 1023.37
1016.64 1017.13 1017.59 1017.99 1018.33 1018.62 1018.86 1019.07 1019.28 1019.50 1019.76 1020.06 1020.40 1020.77 1021.17 1021.57 1021.96 1022.31 1022.60 1022.83 1022.98 1023.07 1023.11 1023.10 1023.06 1023.00 1022.95 1022.91 1022.90 1022.92 1022.97 1023.04 1023.13 1023.24 1023.36 1023.48 1023.59 1023.68 1023.76 1023.80 1023.81 1023.78 1023.71 1023.60
1016.41 1016.95 1017.44 1017.88 1018.26 1018.58 1018.86 1019.12 1019.37 1019.64 1019.93 1020.27 1020.64 1021.05 1021.47 1021.90 1022.30 1022.66 1022.97 1023.20 1023.36 1023.46 1023.49 1023.47 1023.41 1023.34 1023.27 1023.22 1023.18 1023.18 1023.21 1023.27 1023.35 1023.46 1023.58 1023.71 1023.83 1023.94 1024.03 1024.09 1024.12 1024.11 1024.06 1023.96
1016.28 1016.83 1017.34 1017.80 1018.20 1018.55 1018.87 1019.16 1019.46 1019.76 1020.10 1020.48 1020.89 1021.32 1021.77 1022.22 1022.63 1023.00 1023.31 1023.55 1023.71 1023.79 1023.81 1023.78 1023.72 1023.64 1023.55 1023.49 1023.44 1023.43 1023.46 1023.51 1023.61 1023.72 1023.85 1023.99 1024.14 1024.27 1024.39 1024.47 1024.53 1024.55 1024.51 1024.43
1016.29 1016.84 1017.36 1017.82 1018.23 1018.60 1018.94 1019.26 1019.59 1019.93 1020.30 1020.71 1021.15 1021.61 1022.07 1022.52 1022.95 1023.31 1023.62 1023.84 1023.99 1024.07 1024.08 1024.04 1023.97 1023.88 1023.80 1023.73 1023.69 1023.69 1023.72 1023.79 1023.90 1024.03 1024.19 1024.35 1024.51 1024.67 1024.81 1024.93 1025.01 1025.05 1025.04 1024.98
1016.44 1016.99 1017.50 1017.96 1018.37 1018.74 1019.09 1019.43 1019.77 1020.14 1020.53 1020.96 1021.41 1021.88 1022.35 1022.80 1023.21 1023.56 1023.85 1024.07 1024.20 1024.27 1024.28 1024.24 1024.17 1024.10 1024.03 1023.98 1023.96 1023.98 1024.03 1024.13 1024.25 1024.41 1024.58 1024.76 1024.95 1025.12 1025.28 1025.42 1025.52 1025.58 1025.59 1025.55
1016.70 1017.24 1017.74 1018.18 1018.58 1018.95 1019.29 1019.64 1019.99 1020.37 1020.77 1021.20 1021.65 1022.11 1022.57 1023.00 1023.39 1023.73 1024.00 1024.20 1024.33 1024.39 1024.41 1024.39 1024.35 1024.30 1024.26 1024.25 1024.27 1024.32 1024.41 1024.53 1024.68 1024.85 1025.04 1025.24 1025.43 1025.62 1025.79 1025.93 1026.04 1026.12 1026.15 1026.13
1017.00 1017.52 1018.00 1018.42 1018.81 1019.16 1019.50 1019.84 1020.19 1020.57 1020.96 1021.39 1021.83 1022.27 1022.70 1023.11 1023.48 1023.79 1024.05 1024.24 1024.37 1024.45 1024.49 1024.50 1024.50 1024.50 1024.52 1024.56 1024.63 1024.72 1024.85 1025.01 1025.18 1025.37 1025.57 1025.77 1025.96 1026.14 1026.30 1026.44 1026.55 1026.64 1026.68 1026.67
1017.25 1017.75 1018.20 1018.61 1018.98 1019.32 1019.65 1019.98 1020.32 1020.69 1021.07 1021.48 1021.90 1022.31 1022.72 1023.11 1023.46 1023.76 1024.01 1024.20 1024.35 1024.46 1024.54 1024.60 1024.66 1024.73 1024.81 1024.91 1025.04 1025.19 1025.36 1025.55 1025.74 1025.94 1026.14 1026.32 1026.50 1026.66 1026.81 1026.93 1027.03 1027.11 1027.16 1027.17
Thickness
5658 5669 5675 5676 5678 5680 5674 5666 5655 5655 5651 5650 5653 5654 5653 5650 5645 5641 5636 5632 5627 5620 5616 5614 5610 5605 5600 5595 5590 5585 5579 5571 5564 5558 5552 5545 5537 5529 5521 5514 5508 5501 5494 5487
5644 5660 5666 5665 5668 5671 5667 5664 5656 5649 5642 5644 5645 5646 5642 5639 5636 5629 5623 5618 5614 5608 5603 5598 5594 5588 5583 5578 5572 5567 5561 5553 5547 5540 5534 5526 5518 5510 5503 5496 5490 5484 5477 5471
5621 5639 5648 5633 5641 5650 5647 5648 5649 5638 5634 5632 5629 5627 5624 5625 5624 5619 5611 5604 5598 5592 5587 5581 5576 5571 5565 5560 5554 5548 5541 5535 5528 5522 5515 5509 5502 5494 5486 5479 5474 5467 5462 5457
5608 5618 5608 5609 5630 5634 5629 5627 5632 5627 5621 5617 5613 5607 5605 5607 5607 5602 5596 5587 5580 5574 5568 5563 5557 5552 5547 5541 5535 5529 5522 5517 5511 5506 5499 5491 5484 5477 5471 5465 5459 5453 5447 5443
5591 5595 5599 5609 5616 5620 5610 5604 5613 5612 5606 5601 5601 5599 5591 5586 5585 5581 5574 5568 5562 5556 5551 5545 5540 5534 5529 5523 5517 5512 5507 5502 5497 5491 5483 5475 5468 5462 5456 5450 5445 5440 5435 5431
5583 5583 5580 5590 5607 5614 5604 5587 5602 5602 5597 5592 5591 5584 5576 5569 5565 5560 5555 5550 5545 5540 5535 5530 5524 5519 5514 5508 5503 5498 5493 5488 5482 5476 5469 5461 5454 5448 5442 5437 5432 5427 5422 5418
5569 5570 5577 5587 5599 5603 5584 5577 5592 5591 5587 5582 5575 5570 5562 5554 5548 5544 5540 5535 5531 5527 5521 5516 5511 5506 5500 5495 5490 5486 5481 5475 5468 5462 5455 5447 5440 5435 5430 5424 5419 5414 5409 5405
5560 5558 5562 5583 5587 5579 5574 5580 5580 5576 5571 5566 5560 5553 5546 5540 5534 5530 5526 5522 5518 5514 5509 5504 5499 5494 5488 5483 5480 5475 5469 5462 5455 5449 5443 5436 5429 5423 5417 5411 5405 5400 5395 5392
5556 5555 5566 5574 5574 5574 5574 5572 5570 5565 5559 5554 5548 5541 5534 5528 5522 5517 5514 5510 5507 5503 5498 5493 5489 5483 5478 5475 5471 5465 5458 5450 5442 5436 5430 5424 5417 5410 5404 5398 5393 5389 5385 5382
5553 5555 5559 5562 5564 5566 5567 5567 5565 5559 5550 5544 5537 5530 5523 5516 5510 5505 5502 5499 5496 5492 5488 5484 5479 5475 5470 5467 5463 5456 5447 5438 5431 5424 5417 5412 5406 5400 5394 5389 5384 5381 5378 5376
5545 5548 5550 5552 5553 5555 5556 5556 5553 5548 5541 5534 5527 5519 5512 5506 5500 5496 5493 5489 5486 5483 5479 5475 5472 5467 5463 5458 5453 5445 5437 5429 5421 5414 5408 5402 5397 5392 5387 5383 5379 5375 5372 5369
5533 5536 5535 5537 5541 5545 5544 5543 5540 5534 5526 5520 5516 5509 5503 5498 5492 5488 5484 5482 5479 5475 5472 5467 5463 5458 5454 5449 5444 5435 5427 5419 5411 5405 5399 5394 5389 5384 5382 5378 5375 5371 5368 5366
5528 5530 5528 5530 5531 5533 5532 5530 5527 5523 5516 5510 5504 5500 5495 5490 5486 5482 5480 5478 5474 5470 5466 5461 5456 5451 5447 5441 5434 5426 5418 5410 5404 5398 5393 5388 5383 5378 5374 5372 5369 5366 5365 5363
5524 5524 5521 5521 5520 5521 5520 5518 5514 5510 5505 5501 5497 5493 5489 5486 5483 5480 5477 5475 5471 5466 5461 5456 5451 5445 5439 5433 5426 5418 5411 5405 5399 5394 5389 5384 5379 5375 5370 5366 5363 5361 5362 5360
5518 5517 5515 5514 5513 5512 5510 5508 5505 5500 5496 5493 5491 5489 5487 5484 5481 5478 5475 5472 5467 5462 5457 5452 5445 5438 5433 5427 5419 5412 5406 5399 5395 5390 5386 5381 5377 5372 5368 5364 5361 5358 5357 5357
5513 5512 5511 5510 5508 5505 5504 5502 5499 5495 5492 5490 5488 5487 5486 5483 5480 5476 5473 5469 5463 5457 5452 5446 5440 5433 5427 5421 5414 5408 5402 5398 5393 5387 5383 5378 5374 5369 5366 5362 5359 5357 5355 5355
5511 5508 5507 5505 5504 5501 5499 5498 5496 5493 5491 5489 5487 5486 5484 5480 5476 5472 5468 5464 5459 5453 5447 5442 5436 5431 5424 5417 5411 5404 5399 5395 5392 5386 5381 5377 5373 5369 5365 5362 5359 5356 5356 5356
5514 5511 5508 5506 5503 5501 5499 5497 5495 5493 5490 5489 5488 5485 5482 5477 5472 5467 5463 5459 5454 5449 5444 5439 5434 5428 5421 5415 5410 5404 5399 5394 5389 5384 5379 5376 5372 5369 5366 5363 5361 5359 5358 5360
5516 5513 5510 5508 5505 5502 5499 5497 5495 5494 5492 5490 5487 5482 5479 5475 5471 5466 5461 5457 5451 5446 5441 5437 5433 5426 5420 5415 5411 5405 5399 5393 5387 5383 5379 5377 5372 5369 5367 5365 5363 5362 5363 5363
5517 5515 5512 5509 5507 5504 5500 5498 5497 5494 5492 5489 5485 5481 5477 5474 5470 5465 5460 5455 5450 5445 5442 5437 5432 5426 5421 5416 5411 5404 5399 5393 5388 5383 5380 5376 5373 5371 5369 5368 5367 5367 5367 5368
5518 5516 5514 5511 5508 5505 5502 5500 5497 5494 5491 5489 5485 5480 5476 5473 5471 5465 5459 5453 5451 5448 5443 5439 5433 5428 5423 5419 5413 5406 5400 5395 5390 5385 5382 5379 5376 5374 5373 5372 5372 5371 5371 5372
5518 5516 5514 5511 5507 5504 5502 5500 5498 5494 5491 5488 5485 5481 5477 5473 5470 5465 5461 5457 5454 5451 5445 5440 5435 5432 5427 5421 5415 5408 5403 5398 5393 5388 5385 5382 5380 5378 5376 5376 5375 5375 5374 5375
5517 5515 5512 5509 5506 5503 5501 5499 5497 5494 5491 5488 5485 5481 5478 5474 5471 5466 5461 5459 5457 5454 5448 5443 5439 5435 5430 5424 5418 5412 5406 5401 5396 5391 5388 5385 5383 5381 5379 5378 5377 5377 5376 5377
5513 5511 5509 5507 5504 5501 5498 5497 5495 5493 5491 5489 5486 5483 5480 5475 5470 5469 5467 5465 5461 5457 5452 5448 5444 5439 5434 5428 5422 5416 5410 5405 5400 5395 5391 5388 5386 5383 5382 5380 5379 5378 5378 5378
5510 5508 5506 5503 5501 5498 5497 5495 5494 5492 5491 5487 5486 5484 5483 5481 5476 5472 5470 5468 5465 5461 5456 5453 5449 5444 5438 5433 5427 5422 5416 5411 5405 5400 5396 5392 5388 5385 5383 5381 5380 5379 5379 5379
5505 5503 5501 5501 5499 5498 5496 5494 5491 5490 5488 5485 5483 5483 5482 5480 5478 5475 5472 5470 5468 5465 5461 5457 5453 5449 5443 5439 5434 5429 5424 5418 5413 5407 5401 5396 5392 5387 5384 5382 5380 5379 5379 5379
5501 5499 5498 5498 5498 5497 5496 5494 5492 5490 5488 5486 5484 5482 5482 5481 5479 5477 5475 5472 5470 5468 5465 5462 5457 5453 5449 5444 5440 5435 5431 5426 5420 5414 5408 5402 5397 5392 5387 5384 5381 5380 5380 5380